Clearfield, PA

9:02 PM EDT on April 24, 2018 (GMT -0400)
Clearfield-Lawrence

Weather History for KFIG - March, 2014

Change the Weather History Date:

Saturday, March 8, 2014

  Actual Average (KDUJ) Record (KDUJ)
Temperature  
Mean Temperature 33 °F -  
Max Temperature 45 °F 39 °F 68 °F (1987)
Min Temperature 21 °F 22 °F -5 °F (1986)
Degree Days  
Heating Degree Days 32    
Moisture  
Dew Point 28 °F    
Average Humidity 86    
Maximum Humidity 100    
Minimum Humidity 58    
Precipitation  
Precipitation 0.01 in - - ()
Sea Level Pressure  
Sea Level Pressure 29.95 in    
Wind  
Wind Speed 4 mph (WNW)    
Max Wind Speed 14 mph    
Max Gust Speed 20 mph    
Visibility 4 miles    
Events Rain , Snow    
Averages and records for this station are not official NWS values.
T = Trace of Precipitation, MM = Missing Value Source: NWS Daily Summary

Daily Weather History Graph

Daily Weather History Graph

Search for Another Location

Airport or City:

Astronomy

Mar. 08, 2014 Rise Set
Actual Time 6:36 AM EST 6:12 PM EST
Civil Twilight 6:09 AM EST 6:40 PM EST
Nautical Twilight 5:37 AM EST 7:11 PM EST
Astronomical Twilight 5:05 AM EST 7:44 PM EST
Moon 11:13 AM EST (3/8) 1:12 AM EST (3/8)
Length of Visible Light 12h 30m
Length of Day
11h 35m
First Quarter, 51% of the Moon is Illuminated
Mar 8
First Quarter
Mar 16
Full
Mar 23
Last Quarter
Mar 30
New
Apr 7
First Quarter

Hourly Weather History & Observations

Time (EST) Temp. Windchill Dew Point Humidity Pressure Visibility Wind Dir Wind Speed Gust Speed Precip Events Conditions
12:54 AM 27.0 °F - 24.1 °F 89% 29.96 in 9.0 mi Calm Calm - N/A   Clear
1:54 AM 26.1 °F - 23.0 °F 88% 29.95 in 9.0 mi Calm Calm - N/A   Clear
2:54 AM 25.0 °F - 23.0 °F 92% 29.93 in 6.0 mi Calm Calm - N/A   Clear
3:54 AM 24.1 °F 19.7 °F 21.9 °F 91% 29.92 in 5.0 mi WSW 3.5 mph - N/A   Clear
4:54 AM 24.1 °F 19.7 °F 21.9 °F 91% 29.93 in 5.0 mi WSW 3.5 mph - N/A   Clear
5:54 AM 23.0 °F 18.4 °F 21.0 °F 92% 29.94 in 5.0 mi WSW 3.5 mph - N/A   Clear
6:54 AM 21.9 °F - 21.0 °F 96% 29.95 in 4.0 mi Calm Calm - N/A   Clear
7:14 AM 24.1 °F - 21.9 °F 91% 29.90 in 5.0 mi Calm Calm - N/A   Partly Cloudy
7:22 AM 24.1 °F 19.7 °F 24.1 °F 100% 29.90 in 2.0 mi SW 3.5 mph - N/A   Mostly Cloudy
7:27 AM 25.0 °F - 24.1 °F 96% 29.91 in 1.0 mi Calm Calm - N/A   Mist
7:40 AM 25.0 °F 20.7 °F 24.1 °F 96% 29.91 in 1.8 mi SSW 3.5 mph - N/A   Mostly Cloudy
7:45 AM 25.0 °F - 23.0 °F 92% 29.91 in 3.0 mi Calm Calm - N/A   Mostly Cloudy
7:52 AM 24.8 °F 19.1 °F 24.8 °F 100% 29.91 in 4.0 mi South 4.6 mph - N/A   Scattered Clouds
7:54 AM 25.0 °F 19.3 °F 25.0 °F 100% 29.96 in 4.0 mi South 4.6 mph - N/A   Scattered Clouds
8:54 AM 30.9 °F 26.2 °F 27.0 °F 85% 29.97 in 9.0 mi SW 4.6 mph - N/A   Mostly Cloudy
9:54 AM 39.9 °F 36.7 °F 28.9 °F 65% 29.95 in - Variable 4.6 mph - N/A   Overcast
10:54 AM 39.9 °F 34.5 °F 30.0 °F 68% 29.95 in - SW 8.1 mph - N/A   Overcast
11:54 AM 41.0 °F 35.8 °F 28.9 °F 62% 29.95 in - SW 8.1 mph - N/A   Overcast
12:54 PM 45.0 °F 39.7 °F 30.9 °F 58% 29.94 in 10.0 mi West 10.4 mph - N/A   Overcast
1:54 PM 43.0 °F 36.0 °F 30.9 °F 62% 29.93 in 8.0 mi WNW 13.8 mph - N/A   Overcast
2:54 PM 42.1 °F 35.2 °F 32.0 °F 67% 29.94 in 7.0 mi NW 12.7 mph 19.6 mph N/A   Overcast
3:54 PM 39.0 °F 32.3 °F 30.9 °F 73% 29.95 in 6.0 mi WNW 10.4 mph 19.6 mph N/A   Haze
4:54 PM 37.0 °F 30.4 °F 30.9 °F 79% 29.96 in 6.0 mi WNW 9.2 mph - 0.00 in Rain Light Rain
5:42 PM 36.0 °F 29.6 °F 30.9 °F 82% 29.92 in 5.0 mi WNW 8.1 mph - 0.00 in   Overcast
5:54 PM 35.1 °F 29.3 °F 30.9 °F 85% 29.99 in 4.0 mi WNW 6.9 mph - 0.00 in Snow Light Snow
6:23 PM 35.1 °F 27.9 °F 30.9 °F 85% 29.94 in 3.0 mi WNW 9.2 mph - 0.00 in Snow Light Snow
6:37 PM 34.0 °F 26.0 °F 30.9 °F 89% 29.95 in 3.0 mi WNW 10.4 mph - 0.00 in Snow Light Snow
6:54 PM 34.0 °F 29.8 °F 30.9 °F 89% 30.01 in 3.0 mi WNW 4.6 mph - 0.00 in Snow Light Snow
7:01 PM 34.0 °F 28.8 °F 32.0 °F 92% 29.95 in 2.5 mi WNW 5.8 mph - 0.00 in Snow Light Snow
7:15 PM 34.0 °F 26.6 °F 32.0 °F 92% 29.95 in 3.0 mi NW 9.2 mph - 0.00 in Snow Light Snow
7:22 PM 34.0 °F 26.6 °F 30.0 °F 85% 29.95 in 4.0 mi WNW 9.2 mph - 0.00 in Snow Light Snow
7:54 PM 33.1 °F 26.1 °F 30.0 °F 89% 30.00 in 3.0 mi WNW 8.1 mph - 0.00 in Snow Light Snow
8:20 PM 33.1 °F 26.9 °F 30.0 °F 89% 29.95 in 2.5 mi WNW 6.9 mph - 0.00 in Snow Light Snow
8:38 PM 33.1 °F 30.0 °F 30.9 °F 92% 29.95 in 2.0 mi WNW 3.5 mph - 0.00 in Snow Light Snow
8:54 PM 33.1 °F 27.7 °F 30.0 °F 89% 29.99 in 2.0 mi WNW 5.8 mph - 0.00 in Snow Light Snow
9:05 PM 32.0 °F 27.5 °F 30.0 °F 92% 29.95 in 2.5 mi NW 4.6 mph - 0.00 in Snow Light Snow
9:17 PM 32.0 °F 24.2 °F 28.9 °F 88% 29.95 in 3.0 mi NW 9.2 mph - 0.00 in Snow Light Snow
9:27 PM 32.0 °F 25.6 °F 28.9 °F 88% 29.96 in 2.0 mi NW 6.9 mph - 0.00 in Snow Light Snow
9:34 PM 32.0 °F 26.4 °F 28.9 °F 88% 29.96 in 1.8 mi NW 5.8 mph - 0.00 in Snow Light Snow
9:42 PM 32.0 °F 25.6 °F 30.0 °F 92% 29.96 in 2.5 mi NW 6.9 mph - 0.00 in Snow Light Snow
9:54 PM 30.9 °F 24.3 °F 28.0 °F 89% 30.00 in 3.0 mi NW 6.9 mph - 0.00 in Snow Light Snow
10:12 PM 30.9 °F 24.3 °F 28.0 °F 89% 29.97 in 3.0 mi NW 6.9 mph - 0.01 in Snow Light Snow
10:19 PM 30.9 °F 25.2 °F 28.9 °F 92% 29.96 in 2.5 mi NW 5.8 mph - 0.01 in Snow Light Snow
10:22 PM 30.9 °F 26.2 °F 28.9 °F 92% 29.96 in 2.5 mi NW 4.6 mph - 0.01 in Snow Light Snow
10:29 PM 30.9 °F 26.2 °F 28.9 °F 92% 29.95 in 3.0 mi WNW 4.6 mph - 0.01 in Snow Light Snow
10:40 PM 30.9 °F 21.7 °F 27.0 °F 85% 29.96 in 3.0 mi NW 11.5 mph - 0.01 in Snow Light Snow
10:54 PM 30.9 °F 22.2 °F 26.1 °F 82% 30.00 in 6.0 mi NW 10.4 mph - 0.01 in Snow Light Snow
11:36 PM 30.0 °F 22.4 °F 26.1 °F 85% 29.96 in 10.0 mi NW 8.1 mph - 0.00 in   Overcast
11:54 PM 30.0 °F 22.4 °F 26.1 °F 85% 29.99 in 10.0 mi WNW 8.1 mph - 0.00 in   Overcast